Location: Coors Field
(39.7564°N, 104.9943°W)
Time: 03:38:53
(UTC-06:00)

ISS - Visible Passes

Search period start: 01 November 2014 00:00
Search period end: 10 November 2014 23:00
Orbit: 412 x 417 km, 51.6° (Epoch: 01 November)

Date Brightness Start Highest point End Pass type
(mag) Time Alt. Az. Time Alt. Az. Time Alt. Az.
06 Nov 0.0 05:55:02 10° SSE 05:56:49 14° SE 05:58:37 10° E visible
08 Nov -1.8 05:51:18 10° SSW 05:54:23 39° SE 05:57:30 10° ENE visible
09 Nov -0.8 05:02:29 10° S 05:05:03 21° SE 05:07:38 10° E visible
10 Nov -0.2 04:15:09 11° SE 04:15:45 12° SE 04:16:59 10° ESE visible
10 Nov -3.4 05:48:42 10° WSW 05:51:59 71° NW 05:55:18 10° NE visible
